Miscellaneous Local Product
Issued by NWS North Platte, NE

Home | Current Version | Previous Version | Graphics & Text | Print | Product List | Glossary On
Versions: 1 2 3 4 5 6 7 8 9 10 11 12 13 14 15 16 17 18 19 20 21 22 23 24 25 26 27 28 29 30 31 32 33 34 35 36 37 38 39 40 41 42 43 44 45 46 47 48 49 50
000
AXUS43 KLBF 211710
MISLBF


WESTERN AND NORTH CENTRAL NEBRASKA HOURLY WEATHER ROUNDUP
NATIONAL WEATHER SERVICE NORTH PLATTE NE
1200 PM CDT SUN SEP 21 2014

***STATIONS NOT REPORTING VARIABLES SUCH AS SKY/WEATHER OR
PRESSURE ARE PROVIDED BY THE NEBRASKA DEPARTMENT OF
ROADS...RAWS...AND APRS NETWORKS...AND ARE NOT UNDER
NATIONAL WEATHER SERVICE QUALITY CONTROL***

...OBSERVATIONS IN AND NEAR THE EASTERN PANHANDLE OF NEBRASKA...

CITY           SKY/WX    TMP DP  RH WIND       PRES   REMARKS
PINE RIDGE     SUNNY     66  36  32 CALM      30.37S
CHADRON        MOSUNNY   68  37  32 S6        30.37S
ALLIANCE       CLOUDY    66  36  32 MISG      30.39S
SIDNEY         MOSUNNY   66  38  35 SE7       30.40F
WHITECLAY        N/A     66  34  30 CALM        N/A
RUSHVILLE        N/A     71  22  16 NW8         N/A
CRESCENT LAKE    N/A     69  37  31 S5          N/A
LISCO            N/A     67  37  32 E6          N/A
BIG SPRINGS      N/A     61  46  57 CALM        N/A
$$

...OBSERVATIONS IN NORTH CENTRAL NEBRASKA...

CITY           SKY/WX    TMP DP  RH WIND       PRES   REMARKS
VALENTINE      SUNNY     69  37  30 N12       30.34S
THEDFORD       SUNNY     69  39  34 N7        30.37S
AINSWORTH      SUNNY     66  39  36 N14G21    30.34S
O`NEILL        SUNNY     67  47  48 NW12      30.32S
ORD            SUNNY     69  42  37 N14       30.30S
BROKEN BOW     SUNNY     71  38  29 NW9       30.33S
SPRINGVIEW       N/A     67  45  44 NE6         N/A
ROSE             N/A     72  45  37 SW10        N/A
NEWPORT          N/A     68  44  40 SW6         N/A
COMSTOCK         N/A     75  41  29 NE9         N/A
$$

...OBSERVATIONS IN SOUTHWEST NEBRASKA AND FAR NORTHEAST COLORADO...

CITY           SKY/WX    TMP DP  RH WIND       PRES   REMARKS
WRAY           FAIR      72  34  25 E9        30.38F
HOLYOKE        FAIR      73  41  31 E6        30.39S
IMPERIAL       PTSUNNY   69  34  27 E8        30.37F
OGALLALA       CLOUDY    68  41  37 CALM      30.38S
NORTH PLATTE   MOSUNNY   69  43  38 VRB6      30.36S
MCCOOK         MOSUNNY   72  38  29 NE8G16    30.35S
LEXINGTON      SUNNY     71  39  31 N9        30.34S
PAXTON           N/A     64  46  53 CALM        N/A
SUTHERLAND       N/A     75  37  25 CALM        N/A
BRADY            N/A     67  40  36 CALM        N/A
GOTHENBURG       N/A     69  38  31 CALM        N/A
CALLAWAY         N/A     66  45  46 N3          N/A
$$

...SOME WEATHER OBSERVATIONS FROM AROUND THE REGION...

CITY           SKY/WX    TMP DP  RH WIND       PRES   REMARKS
DENVER         PTSUNNY   65  45  48 VRB3      30.39S
LARAMIE        SUNNY     62  42  47 SE25G31   30.41S
CHEYENNE       MOSUNNY   62  37  39 S17G24    30.41F
SCOTTSBLUFF    CLOUDY    65  39  38 SE9       30.39F
RAPID CITY     SUNNY     67  37  33 SE7       30.36S
PIERRE         SUNNY     66  45  46 W7        30.31R
WINNER         FAIR      67  41  38 NW10      30.33S
SIOUX FALLS    MOSUNNY   67  46  47 N13       30.24R
OMAHA          MOSUNNY   68  48  48 NW20      30.22S
GRAND ISLAND   SUNNY     71  41  33 N16G23    30.31R
KANSAS CITY    SUNNY     73  48  41 NW20G28   30.18S
WICHITA        MOSUNNY   81  41  24 NE17      30.23R
HAYS           SUNNY     73  46  38 NE10      30.31S
LIBERAL        SUNNY     79  45  29 E15G21    30.30F
GOODLAND       PTSUNNY   67  38  34 E12       30.39S
$$



USA.gov is the U.S. government's official web portal to all federal, state and local government web resources and services.